sat.trackr.live / text

‹ back to catalog

STARLINK-34074

NORAD 64099 · 2025-110D

PAYLOAD ACTIVE UNKNOWN

§ Identity

Operator
Country
US
Launch date
2025-05-23
Launch site
AFWTR
Launch vehicle
Mass (kg)
RCS (m²)

Purposes: comms

External: N2YO · Heavens-Above · Gunter

§ Orbital elements

Epoch: 2026-05-25T00:15:04.539744Z

Period
94.10 min
Inclination
53.1617°
Eccentricity
0.0001206
Mean motion
15.30207317 rev/d
Perigee alt
474.4 km
Apogee alt
476.0 km
Semi-major
6,853.3 km
B*
4.5032e-4
RAAN
32.5395°
Arg perigee
83.4989°
Mean anomaly
276.6149°
Rev number
5,756

§ Raw data

STARLINK-340741 64099U 25110D   26145.01046921  .00013004  00000+0  45032-3 0  99922 64099  53.1617  32.5395 0001206  83.4989 276.6149 15.30207317 57567

JSON: /api/v1/satellites/64099 · /tle

For live sub-satellite position, see the globe view (requires WebGL).

§ Visibility from observer

Set your observer location to see the next 7 days of passes ≥ 10°. The values pass through the URL so the page stays shareable.

No JS? Fill the form by hand. The geolocation button needs JavaScript.